Regional Weather Roundup
Issued by NWS

Home | Current Version | Previous Version | Text Only | Print | Product List | Glossary Off
Versions: 1 2 3 4 5 6 7 8 9 10 11 12 13 14 15 16 17 18 19 20 21 22 23 24 25 26 27 28 29 30 31 32 33 34 35 36 37 38 39 40 41 42 43 44 45 46 47 48 49 50

000
ASUS43 KMKX 300811
RWRWI

WISCONSIN REGIONAL WEATHER ROUNDUP
NATIONAL WEATHER SERVICE MILWAUKEE/SULLIVAN WI
300 AM CDT THU OCT 30 2014

NOTE: "FAIR" INDICATES FEW OR NO CLOUDS BELOW 12,000 FEET WITH NO
SIGNIFICANT WEATHER AND/OR OBSTRUCTIONS TO VISIBILITY.

WIZ001-002-006>008-014>016-023>028-300900-
NORTHWEST WISCONSIN

CITY           SKY/WX    TMP DP  RH WIND       PRES   REMARKS
SUPERIOR ARPT  CLOUDY    38  34  85 CALM      30.07S
ASHLAND        CLOUDY    39  33  79 SW5       30.07S
HAYWARD        CLOUDY    38  32  79 CALM      30.07R
SIREN          CLOUDY    37  32  81 CALM      30.07S
CUMBERLAND     CLOUDY    32  32 100 CALM      30.06F
RICE LAKE      MOCLDY    32  31  98 CALM      30.09S
CHETEK         MOCLDY    32  32  97 CALM      30.08S
LADYSMITH      MOCLDY    35  33  92 SW3       30.08S
EAU CLAIRE     CLOUDY    36  32  85 CALM      30.08F
MENOMONIE      CLOUDY    35  32  91 E3        30.08F
NEW RICHMOND   CLOUDY    35  33  94 CALM      30.07S
OSCEOLA        CLOUDY    36  36  97 CALM      30.10S
$$

WIZ003>005-009-010-017-018-300900-
NORTH CENTRAL WISCONSIN

CITY           SKY/WX    TMP DP  RH WIND       PRES   REMARKS
MANITOWISH WTR CLOUDY    35  32  88 CALM      30.04F
ARBOR VITAE    CLOUDY    37  32  84 W3        30.05S
WOODRUFF       CLOUDY    37  32  84 W3        30.05S
RHINELANDER    CLOUDY    36  31  82 W7        30.05F WCI  30
EAGLE RIVER    CLOUDY    37  30  78 W3        30.04S
LAND O LAKES   CLOUDY    36  32  85 W5        30.05S WCI  32
PHILLIPS       CLOUDY    37  32  84 SW3       30.04S
TOMAHAWK       CLOUDY    36  32  86 CALM      30.06F
MEDFORD        MOCLDY    31  30  96 S3        30.06F
MERRILL        CLOUDY    32  31  98 CALM      30.07S
$$

WIZ029-030-035-036-043>047-300900-
CENTRAL WISCONSIN

CITY           SKY/WX    TMP DP  RH WIND       PRES   REMARKS
WAUSAU         MOCLDY    34  31  88 CALM      30.07S
MOSINEE        PTCLDY    32  32 100 CALM      30.09S
MARSHFIELD     MOCLDY    33  31  92 CALM      30.08S
STEVENS POINT  PTCLDY    28  27  95 CALM      30.09F
WAUPACA        PTCLDY    33  32  97 CALM      30.09F
WAUTOMA        PTCLDY    29  28  96 CALM      30.10F
WISC RAPIDS    MOCLDY    31  29  92 CALM      30.10S
CAMP DOUGLAS   CLOUDY    28  28 100 CALM      30.09F
$$

WIZ011>013-019>022-031-037>040-048>050-300900-
NORTHEAST WISCONSIN

CITY           SKY/WX    TMP DP  RH WIND       PRES   REMARKS
ANTIGO         CLOUDY    31  31  99 W5        30.06F WCI  27
SHAWANO        PTCLDY    36  32  87 CALM      30.09S
OCONTO         MOCLDY    34  33  97 CALM      30.08F
STURGEON BAY   CLOUDY    41  34  75 W5        30.09S
GREEN BAY      MOCLDY    38  34  85 CALM      30.09F
MANITOWOC      PTCLDY    39  35  86 W6        30.10S WCI  35
APPLETON       FAIR      36  32  87 W5        30.09F WCI  32
CLINTONVILLE   PTCLDY    32  32 100 CALM      30.09S
OSHKOSH        PTCLDY    36  32  85 SW6       30.09S WCI  31
$$

WIZ032>034-041-042-053>061-300900-
SOUTHWEST WISCONSIN

CITY           SKY/WX    TMP DP  RH WIND       PRES   REMARKS
LA CROSSE      MOCLDY    37  34  89 SE5       30.10F WCI  33
SPARTA         MOCLDY    28  28  99 CALM      30.11F
VIROQUA        MOCLDY    35  32  89 S5        30.09F WCI  31
BOSCOBEL       MOCLDY    31  29  92 CALM      30.13S
PRAIRIE DU CHI MOCLDY    33  31  92 CALM      30.12S
PLATTEVILLE    PTCLDY    34  31  89 CALM      30.13R
$$

WIZ056-057-062-063-064-067-068-300900-
SOUTH CENTRAL WISCONSIN

CITY           SKY/WX    TMP DP  RH WIND       PRES   REMARKS
REEDSBURG      MOCLDY    31  30  97 CALM      30.10S
BARABOO/DELLS  MOCLDY    32  30  94 CALM      30.09F
LONE ROCK      MOCLDY    35  29  78 CALM      30.12S
MINERAL POINT  MOCLDY    34  32  93 CALM      30.11R
MADISON        MOCLDY    33  31  92 CALM      30.11F
MIDDLETON      MOCLDY    33  32  94 CALM      30.11S
WATERTOWN      PTCLDY    29  29  98 CALM      30.10F
MONROE         MOCLDY    34  32  93 SW6       30.11S WCI  29
JANESVILLE     PTCLDY    32  30  93 CALM      30.12R
$$

WIZ051-052-058>065-066-070>072-300900-
SOUTHEAST WISCONSIN

CITY           SKY/WX    TMP DP  RH WIND       PRES   REMARKS
MILWAUKEE      PTCLDY    36  30  79 CALM      30.12S
WAUKESHA       PTCLDY    30  28  93 CALM      30.12S
MILWAUKEE/TIMM PTCLDY    32  30  93 CALM      30.12F
RACINE         CLEAR     36  30  79 W5        30.14S WCI  32
BURLINGTON     PTCLDY    28  28  98 CALM      30.12S
KENOSHA        PTCLDY    32  30  92 CALM      30.13R
FOND DU LAC    PTCLDY    31  28  89 SW5       30.10S WCI  26
SHEBOYGAN      PTCLDY    33  30  88 CALM      30.10F
WEST BEND      PTCLDY    30  28  93 CALM      30.10S
JUNEAU         CLEAR     32  30  92 CALM      30.11F
$$

LSZ147-162-300900-
LAKE SUPERIOR

STATION/POSITION TIME  TEMP    WIND        PRES    WAVE
                       AIR SEA DIR/SP/G            HT/PER
                 (UTC) (F)     (DEG/KT/KT) (MB)    (FT/S)
W MID LAKE BUOY  0750   42 45  250/ 16/ 17 1017.3F   1/ 4
DEVILS ISLAND    0800   41     270/ 14/ 16 1018.3R
PORT WING        0700   40     210/  5/  7 1018.3
SAXON HARBOR     0700   41      CALM  /  2 1017.9
$$

LMZ867-665-643>646-300900-
LAKE MICHIGAN

STATION/POSITION TIME  TEMP    WIND        PRES    WAVE
                       AIR SEA DIR/SP/G            HT/PER
                 (UTC) (F)     (DEG/KT/KT) (MB)    (FT/S)
CHAMBERS ISLAND  0700   40      CALM  /  2 1019.0S
N MID LAKE BUOY  0750   43 51   10/  4/  6 1019.0F   1
NORTHPORT PIER   0700   42     150/  3/  3 1018.6F
KEWAUNEE LAKESHO 0700   44     260/  1/  3 1018.0F
SHEBOYGAN LAKESH 0800   40 50  260/  6/  7 1020.0F
PORT WASHINGTON  0700   38     270/  5/  6 1020.3F
ATWATER BUOY     0800   43     240/ 10/ 10 1020.8S
MILWAUKEE LAKESH 0700   42     280/  4/  5   N/A
S MID LAKE BUOY  0750   47 53  270/  6/  6 1020.4F   2/ 5
KENOSHA   LAKESH 0800   40     250/  7/  8 1020.0S
$$

TC  - TEMPERATURE IN CELSIUS
VSB - VISIBILITY IN STATUTE MILES
WCI - WIND CHILL INDEX
HX  - HEAT INDEX




USA.gov is the U.S. government's official web portal to all federal, state and local government web resources and services.